Location: Archemont
(49.1579°N, 1.7598°E)
Time: 11:49:25
(UTC+00:00)

In-Cosmos 22 Rocket - Pass Details

Date: 03 February 2023
Orbit: 789 x 888 km, 81.2° (Epoch: 26 March)

Event Time Altitude Azimuth Distance (km) Brightness Sun altitude
Rises 18:29:42 0° 188° (S) 3,467 7.6 -16.1°
Reaches altitude 10° 18:32:07 10° 188° (S) 2,539 6.9 -16.5°
Maximum altitude 18:37:56 87° 101° (E) 897 4.2 -17.4°
Drops below altitude 10° 18:43:49 10° 13° (NNE) 2,562 6.5 -18.4°
Sets 18:46:16 0° 13° (NNE) 3,500 7.2 -18.8°
